Lapse_Rate
3.3 3.4 3.5 3.1 2.8 2.5 1.8 1.2 0.4 0.2 0.3 -0.4 -0.1 0.2 1.0 0.9 1.0 0.3 0.5 4.1 4.1 5.4 5.9 5.7 4.8 5.0 4.8 5.2 5.0 4.9 4.2 4.7 5.6 3.7 2.2 1.5 2.9 2.5 2.2 2.4 3.5 2.7 1.6
4.2 3.9 3.2 3.2 3.5 2.9 2.4 1.8 1.1 1.1 1.4 1.4 1.1 0.8 -0.4 -0.2 0.3 -0.2 -0.8 -0.1 4.7 5.2 5.4 4.7 4.8 5.2 5.7 5.4 5.0 4.2 4.3 4.4 5.2 5.4 3.4 2.5 3.3 2.8 3.2 2.9 3.2 3.4 3.2
4.3 4.0 3.6 3.9 3.9 3.6 3.7 3.2 2.5 1.8 2.1 2.0 1.5 1.1 0.1 -1.0 -0.4 -0.9 -1.2 -1.3 0.1 4.7 5.2 4.6 4.9 4.6 4.8 5.8 5.8 5.8 4.1 3.7 4.2 5.1 3.5 3.2 3.4 3.6 3.7 3.4 3.6 3.2 3.2
3.7 3.7 3.4 3.6 3.8 3.6 3.5 3.2 2.6 2.2 2.4 2.2 2.4 2.3 1.4 1.0 -0.2 -0.9 -1.9 -0.0 1.1 2.8 4.4 5.1 5.5 5.3 5.5 6.0 6.1 5.4 4.3 3.8 4.2 4.9 4.9 4.4 3.7 3.1 3.9 3.5 2.1 1.0 0.8
3.5 3.9 3.6 3.6 3.3 3.5 3.5 3.2 2.3 1.7 2.2 2.7 2.5 3.2 2.9 2.4 2.1 -0.0 -1.0 -0.8 -0.9 -0.8 -1.2 0.4 2.8 2.5 3.4 4.4 5.3 5.0 4.4 3.8 4.0 5.7 5.9 5.4 4.3 4.3 4.3 3.3 3.7 -0.1 -1.1
3.7 3.8 3.9 3.3 3.0 3.0 2.9 2.3 2.3 1.5 1.4 1.3 1.3 2.9 3.7 3.9 2.9 1.9 0.2 0.4 -0.1 -1.5 -2.4 -2.7 -2.4 -3.1 -1.8 -0.1 0.5 1.0 3.1 3.9 3.8 4.5 5.7 5.7 5.7 4.5 3.9 2.9 0.2 1.1 2.1
4.1 3.8 3.0 2.1 1.8 1.5 1.7 1.8 1.4 1.2 1.0 0.6 0.6 1.2 2.7 3.5 3.2 2.1 1.3 1.4 1.2 0.9 -1.1 -1.1 -1.7 -2.8 -3.7 -2.3 -2.9 -2.9 -3.7 -3.9 -1.6 5.3 6.1 5.7 5.5 4.3 3.3 1.7 1.5 1.4 1.4
5.1 4.1 3.1 2.1 1.2 0.9 0.5 0.5 1.3 1.2 0.9 0.8 0.5 1.0 1.6 2.3 3.1 2.8 1.9 1.7 1.5 1.8 0.6 0.4 -0.2 -1.5 -2.5 -2.6 -2.9 -4.3 -5.6 -5.6 -5.3 -3.8 1.9 -3.1 -3.2 -2.8 2.3 2.1 2.0 -0.9 -4.2
4.3 3.5 3.2 2.4 1.1 0.6 0.1 0.3 0.7 0.7 0.9 1.0 0.6 0.9 1.7 2.2 3.6 2.9 1.7 1.6 1.9 2.3 1.7 0.6 -0.0 -0.2 0.8 -2.4 -2.0 -3.7 -4.1 -5.2 -6.2 -5.7 -5.5 -5.4 -5.3 -5.4 -2.7 -0.6 -1.5 -0.5 -3.0
4.7 4.2 3.8 3.2 1.8 0.7 0.6 0.0 0.2 0.0 0.5 0.9 1.2 1.7 2.3 1.9 3.2 4.0 3.5 2.7 1.8 2.0 1.8 1.8 2.3 1.4 -0.1 -0.8 -0.7 -2.7 -1.3 -3.9 -4.2 -6.1 -5.7 -6.6 -6.6 -5.8 -5.4 -4.6 -0.7 1.2 -3.2
5.4 4.5 3.6 2.9 2.7 1.7 1.6 1.1 0.5 0.5 0.7 0.7 0.9 1.5 1.6 2.2 2.2 3.6 4.3 3.2 3.0 3.0 3.3 2.8 2.8 2.8 2.1 1.1 1.0 -1.8 -1.0 -1.1 -1.4 -2.6 -4.3 -4.7 -6.4 -6.4 -6.3 -5.9 -5.2 -2.7 -2.5
4.5 4.0 3.6 3.5 3.4 2.8 2.1 1.9 1.8 1.5 1.3 2.0 1.5 1.5 1.7 2.3 3.5 3.5 4.1 4.5 3.9 2.4 2.6 2.8 2.9 2.7 2.4 2.2 1.6 1.6 0.3 -0.7 -0.6 -1.3 -1.2 -2.6 -4.0 -5.1 -5.2 -4.6 -5.1 -4.8 -4.3
4.6 4.0 4.0 4.1 4.0 3.4 3.2 2.7 2.4 3.1 3.5 4.3 3.8 3.6 3.7 3.5 2.5 3.5 3.6 3.6 3.3 2.3 3.3 3.1 2.2 1.9 2.2 1.4 2.3 2.2 1.2 1.1 0.1 -0.5 -0.6 -0.5 -0.1 -1.0 -2.4 -2.4 -2.5 -3.5 -3.5
5.5 5.8 5.8 5.3 5.7 6.0 5.9 5.5 4.5 5.2 5.9 7.3 5.4 4.8 4.8 4.9 6.3 5.7 3.5 2.5 2.2 1.7 1.9 1.8 2.0 2.3 2.1 2.0 2.2 2.5 2.8 3.1 2.6 2.0 1.9 1.2 0.9 1.1 0.2 -0.5 -0.7 -1.2 -1.6
6.0 6.0 6.1 6.4 6.2 6.1 6.4 6.0 6.0 6.2 7.2 7.3 7.5 6.5 6.4 5.8 7.5 8.6 7.1 4.5 3.6 2.7 1.3 0.2 -0.5 0.1 1.0 1.6 2.3 2.8 3.1 3.2 3.2 3.4 2.8 2.2 1.7 1.6 1.3 1.0 1.3 1.0 0.2
5.8 6.0 5.6 5.6 5.2 5.4 5.7 5.7 7.0 7.8 8.1 8.3 9.5 8.6 6.4 8.2 6.5 5.8 5.5 5.2 4.1 3.4 0.4 0.7 1.6 2.3 2.6 2.9 2.9 3.1 3.4 3.4 3.8 3.7 3.5 3.3 3.1 2.9 2.4 2.3 1.7 1.5 1.5
4.5 5.3 4.5 4.5 4.6 4.8 4.5 4.4 3.7 4.5 7.1 7.8 8.0 9.2 9.5 8.2 6.7 5.7 5.1 4.4 3.7 1.9 0.9 2.0 2.3 2.9 3.5 4.1 4.0 4.1 3.8 3.8 4.0 3.3 3.4 3.7 3.7 3.6 3.4 3.1 2.8 3.1 2.7
1.3 2.1 2.0 2.8 2.4 2.3 0.7 1.8 0.8 1.5 -0.3 2.1 4.6 7.4 8.3 8.0 7.0 5.8 4.5 2.2 0.2 1.4 2.4 2.8 2.8 2.9 3.4 3.6 3.4 3.5 3.2 2.9 2.7 3.0 2.8 2.9 3.4 4.4 4.0 3.8 3.7 3.5 3.6
1.3 0.6 -0.5 -1.0 -0.3 0.8 2.1 2.3 3.4 3.2 3.7 3.4 1.9 3.7 3.1 7.3 6.9 6.2 5.2 1.7 2.6 2.8 3.3 3.1 3.0 2.7 2.8 3.0 2.4 2.1 2.1 1.9 2.0 2.0 2.5 2.9 2.6 3.7 4.6 4.6 4.1 3.5 3.7
0.9 2.6 1.7 2.2 2.3 2.8 3.3 3.9 4.4 4.4 4.5 4.7 5.4 5.6 4.6 4.2 0.9 1.9 1.4 -1.4 2.5 3.8 3.9 3.8 3.0 2.1 1.7 1.6 1.6 0.9 1.5 1.0 1.0 1.7 1.9 2.3 2.8 3.9 3.9 4.5 4.3 4.1 3.8
2.0 3.0 2.1 3.8 3.7 4.1 4.2 4.7 5.2 4.7 4.6 4.7 4.5 2.6 3.3 4.8 3.8 2.8 3.5 1.8 1.6 3.0 1.5 3.2 2.6 1.4 1.4 0.7 0.8 -0.8 -0.4 -0.6 0.2 0.8 1.5 2.2 2.6 2.7 3.8 3.9 4.0 4.5 4.9
3.2 4.6 5.2 4.7 5.2 4.2 4.8 5.8 4.7 4.5 5.1 4.8 4.0 4.1 2.9 2.4 3.7 3.2 3.2 0.4 -0.2 1.7 3.0 0.9 1.3 2.1 1.4 -0.4 -1.1 -3.1 -0.8 -1.5 -1.1 -0.4 0.5 1.8 2.9 3.5 3.2 3.3 3.1 2.8 3.8
3.6 3.4 4.4 4.3 4.5 3.5 3.4 4.4 3.8 3.8 3.8 3.3 2.9 3.8 3.9 2.4 1.7 3.0 2.3 -1.7 0.6 1.3 3.0 2.4 0.1 1.3 3.7 3.1 1.7 -0.1 -1.6 -0.2 -0.4 -0.7 1.0 2.1 3.5 2.5 1.2 1.6 2.5 2.7 2.9
3.1 2.2 3.9 2.8 1.8 2.4 0.8 0.4 1.9 2.5 3.0 3.0 3.1 3.8 3.5 3.3 2.2 0.6 1.3 0.4 0.6 2.6 3.7 3.0 2.8 2.5 3.3 4.1 4.1 3.4 2.8 2.5 1.6 1.0 1.4 2.5 3.5 3.8 2.7 2.6 2.0 1.0 1.5
0.8 0.0 -0.3 -0.4 -1.9 -2.6 -2.0 -0.5 -0.6 -0.4 0.3 1.2 2.9 3.8 3.6 3.7 3.6 2.9 2.9 3.2 3.3 2.2 2.8 3.4 3.6 4.7 4.7 4.4 4.5 4.3 4.4 4.3 3.6 3.3 2.1 3.0 2.8 2.4 1.0 0.7 -0.2 1.1 0.8
0.8 -0.2 -1.2 -1.0 -1.6 -2.2 -2.1 -2.9 -3.2 -2.9 -2.1 -0.3 1.4 2.9 2.3 3.2 3.4 3.0 3.2 3.2 3.0 3.3 2.9 2.9 2.8 2.7 4.1 5.0 5.2 5.3 5.3 4.7 4.1 4.4 3.2 2.1 1.2 2.3 2.6 0.5 0.2 -0.5 0.7
Wind_Speed
10 10 9 10 11 12 10 11 12 13 13 13 14 13 13 14 14 14 14 14 13 13 12 13 16 15 11 10 11 11 10 7 10 2 4 5 9 8 8 12 17 13 10
11 10 11 12 11 11 13 13 13 13 13 14 14 14 15 14 15 15 15 15 13 13 15 14 16 8 13 13 11 13 11 11 8 9 6 5 10 11 10 10 8 11 8
10 11 11 11 12 12 14 15 13 14 15 15 15 15 16 15 17 17 16 15 14 13 14 14 12 11 13 10 12 12 11 10 11 8 5 5 6 6 7 6 8 8 7
10 11 12 12 12 12 13 13 14 14 15 15 16 16 17 15 17 19 18 14 14 11 8 9 11 13 15 15 12 12 10 9 8 8 6 6 5 4 8 7 3 1 2
11 11 11 12 13 12 13 13 12 13 14 15 16 16 17 16 15 20 17 15 15 12 11 12 9 13 18 16 11 11 10 8 7 9 8 6 6 5 12 5 5 2 1
10 11 11 11 13 12 12 13 12 14 14 15 17 17 18 15 31 32 25 15 15 14 13 13 12 17 12 2 10 10 11 11 9 9 10 9 12 10 8 6 4 3 3
11 11 12 12 12 13 13 14 15 15 14 15 16 17 17 20 34 34 30 14 14 15 15 13 12 11 16 8 10 12 11 11 7 13 14 13 10 12 10 8 5 4 4
10 10 11 12 12 12 13 13 13 12 13 12 15 16 17 17 33 33 28 16 14 15 16 17 12 14 16 13 7 10 11 11 12 5 6 5 3 3 5 7 10 6 4
11 12 11 12 11 13 13 12 11 10 11 12 13 17 19 18 33 33 24 15 15 15 15 18 18 16 21 23 10 10 9 9 10 17 15 14 14 12 2 6 4 4 1
10 10 9 10 11 11 9 10 8 8 9 9 13 15 24 18 31 32 26 12 15 12 14 15 27 24 30 27 12 12 10 8 9 11 8 8 11 10 12 5 5 8 3
7 8 10 10 10 10 9 8 10 9 10 12 13 13 17 21 21 33 32 14 11 11 11 12 12 28 29 28 20 16 10 8 7 8 8 7 7 8 7 5 4 1 4
7 8 8 9 7 8 10 10 10 11 12 13 14 13 13 14 28 29 30 27 24 12 13 11 14 30 28 30 21 25 21 10 7 8 7 8 8 6 6 6 6 5 3
8 7 6 5 7 7 10 11 9 11 11 11 11 12 12 12 12 27 28 28 25 12 11 19 27 28 28 21 29 27 17 10 9 9 7 6 6 6 5 3 5 6 8
9 8 8 8 8 7 8 8 9 10 10 10 11 11 10 11 11 12 12 12 16 14 14 11 14 16 17 15 14 15 11 10 9 9 8 6 6 6 6 5 3 4 4
8 8 8 7 7 7 8 9 9 10 13 9 8 9 11 11 12 20 18 12 11 13 12 11 12 12 12 12 12 12 11 11 11 9 8 8 7 7 6 5 4 3 4
7 6 6 5 6 6 6 7 17 19 21 22 22 17 8 21 25 25 24 25 26 20 11 11 11 11 12 12 11 11 11 12 11 10 9 9 8 7 7 6 6 6 6
6 8 6 7 7 7 5 5 6 7 17 19 21 22 23 23 25 26 24 22 24 18 10 10 10 10 10 10 10 10 10 10 11 9 9 9 8 7 7 6 6 5 5
5 7 5 5 4 4 3 3 2 2 2 4 8 15 20 22 23 24 24 18 12 14 9 9 9 9 10 10 10 10 10 10 10 9 9 8 8 7 6 7 6 6 6
6 4 3 3 3 4 3 3 4 5 5 3 3 5 7 16 18 19 20 7 8 8 8 9 8 8 8 8 9 9 9 9 9 9 9 8 7 5 6 6 6 8 7
5 6 4 4 4 4 5 5 5 5 5 4 5 5 5 4 4 5 4 3 4 5 6 7 7 7 7 7 7 7 8 8 9 8 8 8 8 6 5 5 5 4 4
3 3 5 4 4 4 4 5 5 4 4 4 4 3 6 2 2 2 3 3 3 3 3 4 4 5 5 6 7 7 7 6 7 8 8 8 7 6 5 4 3 3 3
4 3 4 4 5 5 5 5 5 5 5 5 4 4 6 3 4 2 3 3 3 3 4 2 3 3 4 4 4 4 6 6 7 7 7 8 7 6 4 3 3 3 3
4 4 4 5 4 5 5 5 5 6 6 6 6 6 6 4 4 4 3 3 3 7 10 8 5 5 10 10 10 9 4 6 7 8 7 7 6 5 3 3 3 3 3
3 4 4 3 4 4 4 4 5 6 6 6 6 7 7 6 6 6 6 7 9 10 12 11 9 10 12 12 11 13 16 17 18 13 12 6 6 6 3 3 3 3 2
3 4 4 3 3 3 4 4 4 5 5 5 6 6 7 7 8 8 8 12 12 12 15 17 12 13 14 14 13 13 16 17 19 19 16 10 6 7 4 3 3 3 3
3 4 3 3 4 3 3 4 4 4 5 5 5 5 5 7 7 7 10 13 12 13 16 16 18 20 19 15 12 12 14 15 16 18 16 10 4 5 4 3 5 3 3
Wind_Direction
6 8 2 4 4 5 360 356 351 343 338 342 338 333 333 333 331 318 309 273 242 240 238 229 226 221 216 213 214 218 213 197 217 234 195 178 187 204 191 204 213 206 200
1 4 10 10 4 9 8 4 4 355 352 351 345 343 344 339 336 328 319 312 257 236 235 226 230 230 239 223 221 223 209 196 197 227 199 190 206 199 193 195 205 206 205
8 11 7 7 9 11 7 7 4 3 1 1 357 356 352 346 343 335 321 310 304 263 241 227 228 224 233 228 223 219 209 198 194 197 189 192 209 197 187 190 192 201 200
12 16 10 7 2 10 13 12 14 14 8 3 2 3 1 357 351 341 335 327 321 311 295 250 230 215 219 222 218 206 193 184 184 191 188 179 187 188 195 189 171 116 145
18 16 10 7 15 12 13 14 12 15 16 14 10 9 11 10 0 357 351 359 358 348 9 1 333 313 208 205 204 190 186 178 184 199 200 193 182 177 197 165 171 121 108
20 20 11 12 17 7 6 11 9 14 15 14 14 11 12 15 10 9 8 10 12 4 12 4 1 5 352 241 213 192 197 188 199 205 217 203 192 194 176 163 128 136 211
25 19 16 14 12 8 12 13 10 9 9 13 14 11 11 16 16 15 13 9 12 10 15 10 12 5 359 32 51 45 47 26 287 218 216 206 193 188 167 153 164 165 181
31 23 23 21 22 14 15 13 10 4 7 8 14 12 13 15 18 16 12 10 15 12 19 15 11 14 359 13 15 53 38 22 13 344 181 111 118 62 166 169 172 129 73
31 25 19 25 22 22 18 8 4 5 5 7 15 17 17 13 17 18 13 10 10 12 14 18 19 19 13 35 22 40 54 15 2 37 55 80 64 49 141 111 131 131 138
36 27 21 24 27 24 11 8 360 10 10 6 16 21 19 15 16 20 20 7 7 7 14 21 19 23 23 29 30 47 20 21 12 10 5 25 43 45 41 47 156 178 142
39 39 30 23 30 19 9 13 12 8 17 17 20 17 22 18 14 18 19 14 12 7 13 13 16 22 30 35 25 49 25 3 12 35 16 8 24 33 27 10 16 126 157
34 34 31 24 22 17 22 18 17 19 24 23 23 20 17 17 16 16 16 19 15 12 12 10 13 19 22 26 28 30 28 15 20 47 34 22 12 14 9 7 8 38 34
36 26 16 15 17 19 29 24 23 22 23 26 22 20 14 9 13 14 11 13 14 17 15 17 17 19 17 19 21 21 21 19 27 35 31 26 5 340 2 356 12 47 53
34 28 25 25 26 24 43 35 31 28 23 27 28 20 13 10 10 10 10 9 10 12 7 13 17 22 23 20 17 16 17 11 17 23 16 11 13 2 20 7 4 17 54
40 32 29 27 26 28 46 39 38 32 35 27 36 25 15 14 11 15 17 15 14 13 10 17 19 18 18 17 14 13 12 11 15 10 11 11 13 5 14 10 16 12 68
49 38 28 34 32 38 37 40 36 43 42 40 36 39 24 26 20 20 22 24 26 22 28 25 19 13 13 8 9 7 10 9 7 6 9 8 9 7 11 12 30 40 54
52 51 43 42 40 39 37 38 33 8 34 38 37 32 34 31 29 26 25 27 29 31 33 22 17 11 6 7 5 4 3 1 359 9 8 4 3 6 9 16 28 26 47
56 51 52 38 23 24 30 24 31 25 340 358 4 28 26 32 32 30 29 27 26 27 28 20 13 7 4 5 3 3 0 358 360 360 4 5 2 1 9 19 20 22 24
56 37 26 12 2 26 15 12 19 19 16 6 341 356 352 24 31 30 31 36 27 21 16 15 10 7 5 3 2 359 359 358 355 353 356 356 356 0 3 15 18 28 27
51 48 45 36 26 25 27 27 22 16 9 3 7 2 340 16 6 358 6 13 22 22 10 16 7 3 3 2 0 356 357 359 356 355 350 347 348 350 7 6 11 20 33
40 29 30 38 30 19 24 22 9 7 359 348 340 332 346 18 330 351 339 349 358 1 350 0 357 355 358 357 1 357 359 351 350 348 344 341 340 342 348 0 10 14 28
40 16 28 27 31 25 14 14 10 359 353 349 330 321 346 4 353 328 321 332 320 311 341 346 352 346 353 354 347 350 351 349 346 342 337 336 335 343 346 354 4 8 11
46 38 43 38 31 25 27 22 17 11 1 356 347 341 337 337 333 332 313 308 309 321 335 339 337 338 355 356 358 354 343 340 330 320 325 331 333 343 345 10 358 8 13
53 46 48 42 38 33 27 26 17 11 7 2 357 3 357 347 344 338 334 323 318 329 332 319 317 317 329 341 350 356 355 351 353 340 335 329 338 345 351 358 2 7 353
63 66 60 56 48 41 36 25 15 4 358 353 354 357 359 0 6 2 358 359 355 345 341 341 322 304 311 316 330 342 353 356 357 357 354 348 344 352 345 360 356 354 11
73 70 63 47 39 36 49 35 16 6 357 342 343 345 356 0 3 3 358 3 359 355 354 349 346 342 316 308 311 324 344 352 356 0 3 3 358 352 351 352 5 8 2